Погода в Березино

Беларусь     54°54′22″N   28°11′29″E
темп.,
°C
ветер,
м/с
пор.,
м/с
влажн.,
%
обл.,
%
осадки,
мм/ч
давл.,
гПа
погр.,
м
23 сентября, чт
чт2300:00+5сз2697100 1.8 1015846
03:00+4ссз3597100 4.1 1015871
06:00+4ссз1497100 0.2 1014734
09:00+4юз0196100 0.3 1013615
12:00+5ююз1294100 0.1 1013318
15:00+5ю2495100 0.1 1011303
18:00+6ююв369494 0.0 1009353
21:00+5ююв41196100 0.0 1005397
24 сентября, пт
пт2400:00+6ююв61496100 1.6 1000649
03:00+7ююв61497100 4.4 994553
06:00+8ююв61498100 6.6 989613
09:00+7зюз41094100 10.1 990718
12:00+7зюз4896100 0.6 991412
15:00+7юз2698100 1.5 993331
18:00+8сз4119695 4.7 996471
21:00+7сз2698100 4.8 1000269
25 сентября, сб
сб2500:00+7зсз4119785 0.2 1002438
03:00+7з41192100 1.9 1002610
06:00+7з3994100 0.0 1005404
09:00+7юз3893100 0.0 1006319
12:00+8ююз3897100 0.6 1007358
15:00+10юз31099100 1.1 1007555
18:00+12зюз3995100 0.3 1007446
21:00+10з311955 0.8 1009367
26 сентября, вс
вс2600:00+10зсз41194100 0.3 1011440
03:00+9сз4119637 0.4 1014487
06:00+8сз4996100 0.1 1016731
09:00+9сз49906 0.1 1018629
12:00+12ссз47701 0.0 1021978
15:00+14ссз46565 0.0 10221378
18:00+11ссз37694 0.0 1023323
21:00+7с22889 0.0 102427
27 сентября, пн
пн2700:00+6ссз24885 0.0 102576
03:00+5ссв23955 0.0 102660
06:00+4ссв24975 0.0 102775
09:00+7св25850 0.0 1027225
12:00+11св346627 0.0 1027882
15:00+11всв3467100 0.0 10271045
18:00+10в356799 0.0 1028475
21:00+9св2479100 0.0 1028132